Regional Weather Roundup
Issued by NWS

Home | Current Version | Previous Version | Graphics & Text | Print | Product List | Glossary On
Versions: 1 2 3 4 5 6 7 8 9 10 11 12 13 14 15 16 17 18 19 20 21 22 23 24 25 26 27 28 29 30 31 32 33 34 35 36 37 38 39 40 41 42 43 44 45 46 47 48 49 50
258
ASUS43 KFSD 111310
RWRSD

WEATHER ROUNDUP FOR SOUTH DAKOTA
NATIONAL WEATHER SERVICE SIOUX FALLS SD
700 AM CST THU FEB 11 2016

NOTE: "FAIR" INDICATES FEW OR NO CLOUDS BELOW 12,000 FEET WITH NO
SIGNIFICANT WEATHER AND/OR OBSTRUCTIONS TO VISIBILITY.


SDZ001>005-009-010-012>017-111400-
NORTHWEST AND NORTH CENTRAL SOUTH DAKOTA

CITY           SKY/WX    TMP DP  RH WIND       PRES   REMARKS
BUFFALO          N/A     31  29  92 S9        29.92R WCI  23
FAITH            N/A     28  25  88 SE10      30.02F WCI  19
MOBRIDGE       LGT SNOW  20  17  88 SE10      30.09F FOG     WCI   9
$$

SDZ012>016-024>037-041>051-057-063-072>074-111400-
SOUTHWEST AND SOUTH CENTRAL SOUTH DAKOTA

CITY           SKY/WX    TMP DP  RH WIND       PRES   REMARKS
RAPID CTY ARPT FOG       27  27 100 SE6       30.00F VSB 1/2 WCI  20
PIERRE         CLOUDY    22  20  92 SE10      30.12F WCI  11
CUSTER         CLOUDY    43  19  38 NW7       29.99F
ELLSWORTH AFB  CLOUDY    27  27 100 S10       29.96  FOG     WCI  17
PHILIP         CLOUDY    31  27  85 S6        30.08S WCI  25
PINE RIDGE     CLOUDY    30  26  85 SW6       30.02F WCI  24
SPEARFISH      CLOUDY    48  27  43 W16G22    29.96S
WINNER         CLOUDY    27  22  81 SE10      30.13F WCI  17
$$

SDZ004>011-016>023-039-040-111400-
NORTHEAST SOUTH DAKOTA

CITY           SKY/WX    TMP DP  RH WIND       PRES   REMARKS
ABERDEEN       CLOUDY    15   9  76 CALM      30.21F
WATERTOWN      CLOUDY    12   6  77 S7        30.19R WCI   1
BROOKINGS      CLOUDY    12   7  80 S8        30.22S WCI   0
SISSETON         N/A      8   3  80 S3        30.25S
$$

SDZ017-020-022-023-036>040-048>070-111400-
SOUTHEAST SOUTH DAKOTA

CITY           SKY/WX    TMP DP  RH WIND       PRES   REMARKS
SIOUX FALLS    CLOUDY    13   5  70 S7        30.24F WCI   3
HURON          CLOUDY    17  12  80 S8        30.22F WCI   7
CHAMBERLAIN    CLOUDY    21  20  96 SE9       30.17S WCI  10
MITCHELL       CLOUDY    18  13  80 S8        30.25R WCI   8
YANKTON        CLOUDY    16  10  79 SE5       30.26F WCI   9
$$

ABBREVIATIONS USED IN REMARKS
   TC - TEMPERATURE IN CELSIUS
  WCI - WIND CHILL INDEX
   HX - HEAT INDEX
  VSB - VISIBILITY





USA.gov is the U.S. government's official web portal to all federal, state and local government web resources and services.